sat.trackr.live / text

‹ back to catalog

TRANSPORTER-12 OBJECT G

NORAD 62615 · 2025-009G

PAYLOAD ACTIVE UNKNOWN

§ Identity

Operator
Country
TBD
Launch date
2025-01-14
Launch site
AFWTR
Launch vehicle
Mass (kg)
RCS (m²)

External: N2YO · Heavens-Above · Gunter

§ Orbital elements

Epoch: 2026-05-25T04:35:13.811712Z

Period
94.40 min
Inclination
97.3943°
Eccentricity
0.0007401
Mean motion
15.25452362 rev/d
Perigee alt
484.3 km
Apogee alt
494.5 km
Semi-major
6,867.6 km
B*
2.5581e-4
RAAN
225.4146°
Arg perigee
59.8420°
Mean anomaly
300.3550°
Rev number
7,529

§ Raw data

TRANSPORTER-12 OBJECT G1 62615U 25009G   26145.19113208  .00006403  00000+0  25581-3 0  99952 62615  97.3943 225.4146 0007401  59.8420 300.3550 15.25452362 75295

JSON: /api/v1/satellites/62615 · /tle

For live sub-satellite position, see the globe view (requires WebGL).

§ Visibility from observer

Set your observer location to see the next 7 days of passes ≥ 10°. The values pass through the URL so the page stays shareable.

No JS? Fill the form by hand. The geolocation button needs JavaScript.

§ Radio — SatNOGS DB

ModeDescriptionDownlinkUplink
BPSK S-band telemetry 2.243 GHz
FM Telemetry 401.900 MHz

2 transmitters · refreshed weekly from db.satnogs.org